sat.trackr.live / text

‹ back to catalog

ONEWEB-0414

NORAD 50491 · 2021-132Y

PAYLOAD ACTIVE UNKNOWN

§ Identity

Operator
Country
UK
Launch date
2021-12-27
Launch site
TYMSC
Launch vehicle
Mass (kg)
RCS (m²)

Purposes: comms

External: N2YO · Heavens-Above · Gunter

§ Orbital elements

Epoch: 2026-09-19T20:44:53.224224Z

Period
109.20 min
Inclination
87.9164°
Eccentricity
0.0002125
Mean motion
13.18686662 rev/d
Perigee alt
1,188.1 km
Apogee alt
1,191.3 km
Semi-major
7,567.9 km
B*
1.3695e-4
RAAN
316.6293°
Arg perigee
96.1330°
Mean anomaly
264.0044°
Rev number
23,410

§ Raw data

ONEWEB-04141 50491U 21132Y   26262.86450491  .00000067  00000+0  13695-3 0  99922 50491  87.9164 316.6293 0002125  96.1330 264.0044 13.18686662234105

JSON: /api/v1/satellites/50491 · /tle

For live sub-satellite position, see the globe view (requires WebGL).

§ Visibility from observer

Set your observer location to see the next 7 days of passes ≥ 10°. The values pass through the URL so the page stays shareable.

No JS? Fill the form by hand. The geolocation button needs JavaScript.